| time (UTC) | temp F | wind direction | speed MPH | gust MPH | rain 1hr in | rain 24hr in | rain mn in | humidity % | barometer mb |
| 20260905060755 | 67 | 53 | 0.0 | 4.0 | 0.00 | 0.08 | 0.00 | 92 | 1014.2 |
| 20260905055750 | 67 | 42 | 0.0 | 0.0 | 0.00 | 0.08 | 0.00 | 92 | 1014.3 |
| 20260905054750 | 67 | 45 | 0.0 | 0.0 | 0.00 | 0.08 | 0.00 | 92 | 1014.6 |
| 20260905053752 | 67 | 45 | 0.0 | 0.0 | 0.00 | 0.08 | 0.00 | 92 | 1014.7 |
| 20260905052750 | 68 | 45 | 0.0 | 0.0 | 0.00 | 0.08 | 0.00 | 92 | 1014.6 |
| 20260905051751 | 68 | 45 | 0.0 | 0.0 | 0.00 | 0.08 | 0.00 | 92 | 1014.4 |
| 20260905050751 | 68 | 45 | 0.0 | 0.0 | 0.00 | 0.08 | 0.00 | 92 | 1014.3 |
| 20260905045754 | 68 | 45 | 0.0 | 0.0 | 0.00 | 0.08 | 0.00 | 92 | 1014.4 |
| 20260905044749 | 68 | 45 | 0.0 | 0.0 | 0.00 | 0.08 | 0.00 | 92 | 1014.4 |
| 20260905043752 | 69 | 45 | 0.0 | 0.0 | 0.00 | 0.08 | 0.00 | 92 | 1014.5 |
| 20260905042744 | 69 | 45 | 0.0 | 0.0 | 0.00 | 0.08 | 0.00 | 92 | 1014.5 |
| 20260905041745 | 69 | 45 | 0.0 | 0.0 | 0.00 | 0.08 | 0.00 | 92 | 1014.5 |
| 20260905040743 | 69 | 45 | 0.0 | 0.0 | 0.00 | 0.08 | 0.00 | 92 | 1014.6 |
| 20260905035744 | 69 | 45 | 0.0 | 0.0 | 0.00 | 0.08 | 0.08 | 92 | 1014.6 |
| 20260905034741 | 69 | 45 | 0.0 | 0.0 | 0.00 | 0.08 | 0.08 | 92 | 1014.7 |
| 20260905033744 | 69 | 45 | 0.0 | 0.0 | 0.00 | 0.08 | 0.08 | 92 | 1014.9 |
| 20260905032744 | 70 | 45 | 0.0 | 0.0 | 0.00 | 0.08 | 0.08 | 92 | 1014.9 |
| 20260905031740 | 70 | 45 | 0.0 | 0.0 | 0.00 | 0.08 | 0.08 | 92 | 1015.2 |
| 20260905030737 | 70 | 41 | 0.0 | 0.0 | 0.00 | 0.08 | 0.08 | 92 | 1015.4 |
| 20260905025736 | 70 | 41 | 0.0 | 0.0 | 0.00 | 0.08 | 0.08 | 92 | 1015.2 |
| 20260905024736 | 70 | 46 | 0.0 | 2.0 | 0.00 | 0.08 | 0.08 | 92 | 1015.1 |
| 20260905023735 | 71 | 46 | 0.0 | 4.0 | 0.00 | 0.08 | 0.08 | 92 | 1015.0 |
| 20260905022732 | 71 | 46 | 0.0 | 4.0 | 0.00 | 0.08 | 0.08 | 92 | 1015.0 |
| 20260905021730 | 71 | 46 | 0.0 | 2.0 | 0.00 | 0.08 | 0.08 | 92 | 1015.1 |
| 20260905020733 | 71 | 46 | 0.0 | 4.0 | 0.00 | 0.08 | 0.08 | 91 | 1015.1 |
| 20260905015732 | 71 | 52 | 0.0 | 0.0 | 0.00 | 0.08 | 0.08 | 91 | 1015.1 |
| 20260905014730 | 71 | 52 | 0.0 | 2.0 | 0.00 | 0.08 | 0.08 | 91 | 1015.4 |
| 20260905013729 | 71 | 52 | 0.0 | 2.0 | 0.00 | 0.08 | 0.08 | 91 | 1015.2 |
| 20260905012729 | 72 | 52 | 2.0 | 5.0 | 0.00 | 0.08 | 0.08 | 91 | 1015.2 |
| 20260905011733 | 72 | 54 | 2.0 | 5.0 | 0.00 | 0.08 | 0.08 | 90 | 1015.1 |
| 20260905010731 | 73 | 5 | 2.0 | 5.0 | 0.00 | 0.08 | 0.08 | 90 | 1015.0 |
| 20260905005725 | 73 | 73 | 2.0 | 5.0 | 0.00 | 0.08 | 0.08 | 89 | 1014.7 |
| 20260905004722 | 74 | 51 | 4.0 | 5.0 | 0.00 | 0.08 | 0.08 | 88 | 1014.7 |
| 20260905003722 | 75 | 42 | 2.0 | 4.0 | 0.00 | 0.08 | 0.08 | 88 | 1014.7 |
| 20260905002723 | 75 | 34 | 0.0 | 5.0 | 0.00 | 0.08 | 0.08 | 88 | 1014.6 |
| 20260905001722 | 75 | 329 | 0.0 | 0.0 | 0.00 | 0.08 | 0.08 | 87 | 1014.5 |
| 20260905000722 | 75 | 329 | 0.0 | 0.0 | 0.00 | 0.08 | 0.08 | 86 | 1014.3 |
| 20260904235719 | 76 | 329 | 0.0 | 0.0 | 0.00 | 0.08 | 0.08 | 87 | 1014.3 |
| 20260904234719 | 76 | 329 | 0.0 | 0.0 | 0.00 | 0.08 | 0.08 | 86 | 1014.3 |
| 20260904233729 | 76 | 329 | 0.0 | 0.0 | 0.00 | 0.08 | 0.08 | 86 | 1014.3 |
| 20260904232721 | 76 | 329 | 0.0 | 0.0 | 0.00 | 0.08 | 0.08 | 86 | 1014.1 |
| 20260904231716 | 76 | 329 | 0.0 | 0.0 | 0.00 | 0.08 | 0.08 | 86 | 1014.1 |
| 20260904230714 | 76 | 329 | 0.0 | 0.0 | 0.00 | 0.08 | 0.08 | 86 | 1013.9 |
| 20260904225716 | 76 | 329 | 0.0 | 0.0 | 0.00 | 0.08 | 0.08 | 86 | 1013.9 |
| 20260904224713 | 76 | 317 | 0.0 | 0.0 | 0.00 | 0.08 | 0.08 | 85 | 1013.7 |
| 20260904223713 | 76 | 317 | 0.0 | 0.0 | 0.00 | 0.08 | 0.08 | 85 | 1013.6 |
| 20260904222719 | 76 | 316 | 0.0 | 4.0 | 0.00 | 0.08 | 0.08 | 85 | 1013.7 |
| 20260904221716 | 76 | 344 | 0.0 | 4.0 | 0.00 | 0.08 | 0.08 | 85 | 1013.6 |
| 20260904220715 | 76 | 319 | 0.0 | 4.0 | 0.00 | 0.08 | 0.08 | 84 | 1013.6 |
| 20260904215712 | 76 | 310 | 0.0 | 5.0 | 0.00 | 0.08 | 0.08 | 84 | 1013.6 |
| 20260904214715 | 76 | 327 | 2.0 | 5.0 | 0.00 | 0.08 | 0.08 | 84 | 1013.5 |
| 20260904213714 | 76 | 325 | 0.0 | 4.0 | 0.00 | 0.08 | 0.08 | 84 | 1013.4 |
| 20260904212711 | 76 | 339 | 2.0 | 7.0 | 0.00 | 0.08 | 0.08 | 83 | 1013.2 |
| 20260904211710 | 76 | 287 | 2.0 | 5.0 | 0.00 | 0.08 | 0.08 | 83 | 1013.3 |
| 20260904210711 | 76 | 325 | 4.0 | 9.0 | 0.00 | 0.08 | 0.08 | 83 | 1013.3 |
| 20260904205714 | 76 | 320 | 4.0 | 9.0 | 0.00 | 0.08 | 0.08 | 83 | 1013.2 |
| 20260904204712 | 76 | 319 | 4.0 | 7.0 | 0.00 | 0.08 | 0.08 | 82 | 1013.1 |
| 20260904203716 | 77 | 336 | 2.0 | 5.0 | 0.00 | 0.08 | 0.08 | 83 | 1013.1 |
| 20260904202713 | 76 | 309 | 2.0 | 7.0 | 0.00 | 0.08 | 0.08 | 83 | 1013.0 |
| 20260904201709 | 76 | 326 | 2.0 | 7.0 | 0.00 | 0.08 | 0.08 | 83 | 1013.0 |
| 20260904200711 | 76 | 334 | 2.0 | 5.0 | 0.00 | 0.08 | 0.08 | 85 | 1013.3 |
| 20260904195714 | 76 | 170 | 2.0 | 5.0 | 0.00 | 0.08 | 0.08 | 85 | 1013.3 |
| 20260904194712 | 75 | 318 | 0.0 | 4.0 | 0.00 | 0.08 | 0.08 | 86 | 1013.5 |
| 20260904193712 | 75 | 182 | 0.0 | 5.0 | 0.00 | 0.08 | 0.08 | 86 | 1013.7 |
| 20260904192710 | 75 | 195 | 2.0 | 11.0 | 0.00 | 0.08 | 0.08 | 86 | 1013.8 |
| 20260904191709 | 75 | 229 | 2.0 | 7.0 | 0.00 | 0.08 | 0.08 | 88 | 1013.9 |
| 20260904190711 | 74 | 209 | 2.0 | 9.0 | 0.00 | 0.08 | 0.08 | 87 | 1013.9 |
| 20260904185711 | 75 | 205 | 0.0 | 5.0 | 0.00 | 0.08 | 0.08 | 88 | 1013.9 |
| 20260904184709 | 75 | 193 | 2.0 | 7.0 | 0.00 | 0.08 | 0.08 | 88 | 1014.1 |
| 20260904183710 | 74 | 164 | 2.0 | 7.0 | 0.00 | 0.08 | 0.08 | 88 | 1014.0 |
| 20260904182711 | 74 | 200 | 0.0 | 4.0 | 0.00 | 0.08 | 0.08 | 91 | 1014.0 |
| 20260904181710 | 74 | 174 | 2.0 | 7.0 | 0.00 | 0.08 | 0.08 | 93 | 1014.1 |
| 20260904180709 | 74 | 204 | 2.0 | 9.0 | 0.00 | 0.08 | 0.08 | 94 | 1014.3 |
| 20260904175706 | 74 | 215 | 2.0 | 11.0 | 0.00 | 0.08 | 0.08 | 95 | 1014.4 |
| 20260904174712 | 73 | 200 | 2.0 | 11.0 | 0.00 | 0.08 | 0.08 | 95 | 1014.4 |
| 20260904173704 | 73 | 191 | 2.0 | 7.0 | 0.00 | 0.08 | 0.08 | 95 | 1014.3 |
| 20260904172703 | 73 | 191 | 2.0 | 4.0 | 0.00 | 0.08 | 0.08 | 96 | 1014.4 |
| 20260904171704 | 72 | 191 | 2.0 | 7.0 | 0.00 | 0.08 | 0.08 | 96 | 1014.4 |
| 20260904170701 | 72 | 185 | 2.0 | 7.0 | 0.00 | 0.08 | 0.08 | 96 | 1014.5 |
| 20260904165701 | 71 | 179 | 0.0 | 5.0 | 0.00 | 0.08 | 0.08 | 97 | 1014.4 |
| 20260904164702 | 71 | 186 | 0.0 | 5.0 | 0.00 | 0.08 | 0.08 | 97 | 1014.6 |
| 20260904163700 | 71 | 174 | 0.0 | 0.0 | 0.00 | 0.08 | 0.08 | 97 | 1014.8 |
| 20260904162705 | 70 | 200 | 0.0 | 0.0 | 0.00 | 0.08 | 0.08 | 97 | 1014.8 |
| 20260904161708 | 69 | 200 | 0.0 | 2.0 | 0.00 | 0.08 | 0.08 | 97 | 1015.4 |
| 20260904160702 | 69 | 168 | 0.0 | 2.0 | 0.00 | 0.08 | 0.08 | 97 | 1015.5 |
| 20260904155656 | 69 | 168 | 0.0 | 2.0 | 0.00 | 0.08 | 0.08 | 97 | 1015.5 |
| 20260904154657 | 69 | 188 | 0.0 | 4.0 | 0.00 | 0.08 | 0.08 | 97 | 1016.0 |
| 20260904153657 | 69 | 183 | 0.0 | 4.0 | 0.01 | 0.08 | 0.08 | 97 | 1016.2 |
| 20260904152654 | 69 | 171 | 0.0 | 4.0 | 0.02 | 0.08 | 0.08 | 97 | 1016.3 |
| 20260904151657 | 69 | 196 | 2.0 | 5.0 | 0.03 | 0.08 | 0.08 | 97 | 1016.3 |
| 20260904150656 | 68 | 183 | 2.0 | 7.0 | 0.05 | 0.08 | 0.08 | 97 | 1016.4 |
| 20260904145657 | 68 | 175 | 2.0 | 7.0 | 0.05 | 0.08 | 0.08 | 97 | 1016.1 |
| 20260904144657 | 68 | 204 | 0.0 | 7.0 | 0.05 | 0.08 | 0.08 | 97 | 1016.4 |
| 20260904143654 | 68 | 177 | 2.0 | 5.0 | 0.05 | 0.07 | 0.07 | 97 | 1016.0 |
| 20260904142655 | 68 | 195 | 0.0 | 4.0 | 0.04 | 0.06 | 0.06 | 97 | 1016.0 |
| 20260904141653 | 68 | 194 | 2.0 | 9.0 | 0.03 | 0.05 | 0.05 | 97 | 1016.0 |
| 20260904140656 | 67 | 195 | 2.0 | 5.0 | 0.02 | 0.03 | 0.04 | 97 | 1016.0 |
| 20260904135652 | 67 | 182 | 2.0 | 9.0 | 0.03 | 0.03 | 0.03 | 97 | 1016.0 |
| 20260904134655 | 67 | 188 | 0.0 | 5.0 | 0.03 | 0.03 | 0.03 | 97 | 1016.5 |
| 20260904133653 | 67 | 203 | 0.0 | 0.0 | 0.02 | 0.02 | 0.02 | 97 | 1016.2 |
| 20260904132652 | 67 | 203 | 0.0 | 2.0 | 0.02 | 0.02 | 0.02 | 97 | 1016.4 |
| 20260904131652 | 67 | 338 | 0.0 | 0.0 | 0.02 | 0.02 | 0.02 | 97 | 1016.0 |
| 20260904130651 | 67 | 311 | 0.0 | 4.0 | 0.01 | 0.01 | 0.01 | 97 | 1016.5 |
| 20260904125650 | 67 | 191 | 0.0 | 5.0 | 0.00 | 0.00 | 0.00 | 97 | 1016.5 |
| 20260904124650 | 67 | 185 | 0.0 | 4.0 | 0.00 | 0.00 | 0.00 | 97 | 1016.2 |
| 20260904123649 | 67 | 185 | 2.0 | 7.0 | 0.00 | 0.00 | 0.00 | 97 | 1016.0 |
| 20260904122650 | 67 | 188 | 2.0 | 5.0 | 0.00 | 0.00 | 0.00 | 97 | 1015.9 |
| 20260904121647 | 67 | 196 | 2.0 | 7.0 | 0.00 | 0.00 | 0.00 | 97 | 1016.0 |
| 20260904120646 | 67 | 190 | 2.0 | 7.0 | 0.00 | 0.00 | 0.00 | 97 | 1015.7 |
| 20260904115643 | 67 | 184 | 0.0 | 2.0 | 0.00 | 0.00 | 0.00 | 97 | 1015.5 |
| 20260904114646 | 67 | 184 | 0.0 | 4.0 | 0.00 | 0.00 | 0.00 | 97 | 1015.6 |
| 20260904114143 | 67 | 184 | 0.0 | 4.0 | 0.00 | 0.00 | 0.00 | 97 | 1015.7 |
| 20260904112642 | 67 | 189 | 0.0 | 5.0 | 0.00 | 0.00 | 0.00 | 97 | 1015.6 |
| 20260904111640 | 67 | 167 | 2.0 | 7.0 | 0.00 | 0.00 | 0.00 | 97 | 1015.1 |
| 20260904110641 | 67 | 203 | 2.0 | 7.0 | 0.00 | 0.00 | 0.00 | 97 | 1015.4 |
| 20260904105642 | 67 | 161 | 0.0 | 0.0 | 0.00 | 0.00 | 0.00 | 97 | 1015.1 |
| 20260904104642 | 67 | 128 | 0.0 | 2.0 | 0.00 | 0.00 | 0.00 | 97 | 1014.9 |
| 20260904103639 | 67 | 85 | 0.0 | 4.0 | 0.00 | 0.00 | 0.00 | 97 | 1014.7 |
| 20260904102643 | 67 | 42 | 0.0 | 0.0 | 0.00 | 0.00 | 0.00 | 97 | 1014.6 |
| 20260904101649 | 67 | 42 | 0.0 | 0.0 | 0.00 | 0.00 | 0.00 | 97 | 1014.3 |
| 20260904100638 | 67 | 42 | 0.0 | 0.0 | 0.00 | 0.00 | 0.00 | 97 | 1014.2 |
| 20260904095636 | 67 | 42 | 0.0 | 0.0 | 0.00 | 0.00 | 0.00 | 96 | 1014.0 |
| 20260904094637 | 67 | 40 | 0.0 | 0.0 | 0.00 | 0.00 | 0.00 | 96 | 1014.0 |
| 20260904093636 | 67 | 40 | 0.0 | 0.0 | 0.00 | 0.00 | 0.00 | 96 | 1014.1 |
| 20260904092634 | 67 | 40 | 0.0 | 0.0 | 0.00 | 0.00 | 0.00 | 96 | 1014.4 |
| 20260904091635 | 67 | 40 | 0.0 | 0.0 | 0.00 | 0.00 | 0.00 | 96 | 1014.8 |
| 20260904090638 | 67 | 40 | 0.0 | 0.0 | 0.00 | 0.00 | 0.00 | 96 | 1015.1 |
| 20260904085637 | 67 | 40 | 0.0 | 0.0 | 0.00 | 0.00 | 0.00 | 96 | 1015.1 |
| 20260904084633 | 67 | 40 | 0.0 | 0.0 | 0.00 | 0.00 | 0.00 | 96 | 1015.0 |
| 20260904083629 | 66 | 40 | 0.0 | 0.0 | 0.00 | 0.00 | 0.00 | 96 | 1015.0 |
| 20260904082631 | 67 | 40 | 0.0 | 0.0 | 0.00 | 0.00 | 0.00 | 96 | 1014.7 |
| 20260904081631 | 66 | 40 | 0.0 | 0.0 | 0.00 | 0.00 | 0.00 | 96 | 1014.7 |
| 20260904080635 | 66 | 40 | 0.0 | 0.0 | 0.00 | 0.00 | 0.00 | 96 | 1015.1 |
| 20260904075631 | 66 | 40 | 0.0 | 2.0 | 0.00 | 0.00 | 0.00 | 96 | 1015.0 |
| 20260904074627 | 66 | 40 | 0.0 | 4.0 | 0.00 | 0.00 | 0.00 | 96 | 1014.9 |
| 20260904073631 | 66 | 40 | 0.0 | 2.0 | 0.00 | 0.00 | 0.00 | 96 | 1014.7 |
| 20260904072629 | 67 | 40 | 0.0 | 4.0 | 0.00 | 0.00 | 0.00 | 96 | 1014.7 |
| 20260904071629 | 66 | 43 | 0.0 | 4.0 | 0.00 | 0.00 | 0.00 | 96 | 1014.6 |
| 20260904070627 | 66 | 43 | 0.0 | 4.0 | 0.00 | 0.00 | 0.00 | 96 | 1014.8 |
| 20260904065627 | 65 | 265 | 0.0 | 0.0 | 0.00 | 0.00 | 0.00 | 95 | 1015.1 |
| 20260904064629 | 66 | 265 | 0.0 | 0.0 | 0.00 | 0.00 | 0.00 | 95 | 1015.6 |
| 20260904063627 | 66 | 265 | 0.0 | 0.0 | 0.00 | 0.00 | 0.00 | 95 | 1015.5 |
| 20260904062629 | 66 | 265 | 0.0 | 0.0 | 0.00 | 0.00 | 0.00 | 95 | 1015.7 |
| 20260904061628 | 66 | 265 | 0.0 | 0.0 | 0.00 | 0.00 | 0.00 | 95 | 1015.7 |